Year,Month,Day,Hour,Minute,Value (Times are PST for temperature in C)
2008,07,01,00,00,17.80
2008,07,01,00,01,17.80
2008,07,01,00,02,17.80
2008,07,01,00,03,17.70
2008,07,01,00,04,17.60
2008,07,01,00,05,17.50
2008,07,01,00,06,17.50
2008,07,01,00,07,17.40
2008,07,01,00,08,17.30
2008,07,01,00,09,17.20
2008,07,01,00,10,17.20
2008,07,01,00,11,17.10
2008,07,01,00,12,17.10
2008,07,01,00,13,17.00
2008,07,01,00,14,17.00
2008,07,01,00,15,17.00
2008,07,01,00,16,16.90
2008,07,01,00,17,16.90
2008,07,01,00,18,16.90
2008,07,01,00,19,16.90
2008,07,01,00,20,16.90
2008,07,01,00,21,16.90
2008,07,01,00,22,16.90
2008,07,01,00,23,16.90
2008,07,01,00,24,16.90
2008,07,01,00,25,17.00
2008,07,01,00,26,17.00
2008,07,01,00,27,17.00
2008,07,01,00,28,17.00
2008,07,01,00,29,17.10
2008,07,01,00,30,17.00
2008,07,01,00,31,17.10
2008,07,01,00,32,17.10
2008,07,01,00,33,17.10
2008,07,01,00,34,17.10
2008,07,01,00,35,17.00
2008,07,01,00,36,17.00
2008,07,01,00,37,17.00
2008,07,01,00,38,17.00
2008,07,01,00,39,17.00
2008,07,01,00,40,17.00
2008,07,01,00,41,17.00
2008,07,01,00,42,17.00
2008,07,01,00,43,17.00
2008,07,01,00,44,16.90
2008,07,01,00,45,16.90
2008,07,01,00,46,16.90
2008,07,01,00,47,16.90
2008,07,01,00,48,16.90
2008,07,01,00,49,16.80
2008,07,01,00,50,16.80
2008,07,01,00,51,16.70
2008,07,01,00,52,16.50
2008,07,01,00,53,16.40
2008,07,01,00,54,16.30
2008,07,01,00,55,16.20
2008,07,01,00,56,16.20
2008,07,01,00,57,16.10
2008,07,01,00,58,16.00
2008,07,01,00,59,16.00
2008,07,01,01,00,15.90
2008,07,01,01,01,15.90
2008,07,01,01,02,15.90
2008,07,01,01,03,15.90
2008,07,01,01,04,15.90
2008,07,01,01,05,15.90
2008,07,01,01,06,15.90
2008,07,01,01,07,15.90
2008,07,01,01,08,15.90
2008,07,01,01,09,15.90
2008,07,01,01,10,15.90
2008,07,01,01,11,15.90
2008,07,01,01,12,15.90
2008,07,01,01,13,15.90
2008,07,01,01,14,15.90
2008,07,01,01,15,15.90
2008,07,01,01,16,15.90
2008,07,01,01,17,15.80
2008,07,01,01,18,15.80
2008,07,01,01,19,15.80
2008,07,01,01,20,15.80
2008,07,01,01,21,15.80
2008,07,01,01,22,15.80
2008,07,01,01,23,15.80
2008,07,01,01,24,15.80
2008,07,01,01,25,15.80
2008,07,01,01,26,15.80
2008,07,01,01,27,15.70
2008,07,01,01,28,15.70
2008,07,01,01,29,15.60
2008,07,01,01,30,15.60
2008,07,01,01,31,15.50
2008,07,01,01,32,15.50
2008,07,01,01,33,15.50
2008,07,01,01,34,15.40
2008,07,01,01,35,15.40
2008,07,01,01,36,15.40
2008,07,01,01,37,15.40
2008,07,01,01,38,15.40
2008,07,01,01,39,15.40
2008,07,01,01,40,15.40
2008,07,01,01,41,15.40
2008,07,01,01,42,15.30
2008,07,01,01,43,15.40
2008,07,01,01,44,15.40
2008,07,01,01,45,15.40
2008,07,01,01,46,15.40
2008,07,01,01,47,15.40
2008,07,01,01,48,15.40
2008,07,01,01,49,15.40
2008,07,01,01,50,15.40
2008,07,01,01,51,15.40
2008,07,01,01,52,15.30
2008,07,01,01,53,15.30
2008,07,01,01,54,15.20
2008,07,01,01,55,15.20
2008,07,01,01,56,15.20
2008,07,01,01,57,15.10
2008,07,01,01,58,15.10
2008,07,01,01,59,15.10
2008,07,01,02,00,15.00
2008,07,01,02,01,15.00
2008,07,01,02,02,15.00
2008,07,01,02,03,15.00
2008,07,01,02,04,15.00
2008,07,01,02,05,15.00
2008,07,01,02,06,15.00
2008,07,01,02,07,15.00
2008,07,01,02,08,15.00
2008,07,01,02,09,15.00
2008,07,01,02,10,15.00
2008,07,01,02,11,15.00
2008,07,01,02,12,15.00
2008,07,01,02,13,15.00
2008,07,01,02,14,15.00
2008,07,01,02,15,15.00
2008,07,01,02,16,15.00
2008,07,01,02,17,15.00
2008,07,01,02,18,15.00
2008,07,01,02,19,15.00
2008,07,01,02,20,15.00
2008,07,01,02,21,15.00
2008,07,01,02,22,15.00
2008,07,01,02,23,15.00
2008,07,01,02,24,15.00
2008,07,01,02,25,15.00
2008,07,01,02,26,15.00
2008,07,01,02,27,15.00
2008,07,01,02,28,15.00
2008,07,01,02,29,15.00
2008,07,01,02,30,15.00
2008,07,01,02,31,14.90
2008,07,01,02,32,14.90
2008,07,01,02,33,14.80
2008,07,01,02,34,14.80
2008,07,01,02,35,14.80
2008,07,01,02,36,14.80
2008,07,01,02,37,14.80
2008,07,01,02,38,14.80
2008,07,01,02,39,14.80
2008,07,01,02,40,14.80
2008,07,01,02,41,14.90
2008,07,01,02,42,14.90
2008,07,01,02,43,14.90
2008,07,01,02,44,14.90
2008,07,01,02,45,14.90
2008,07,01,02,46,14.90
2008,07,01,02,47,14.90
2008,07,01,02,48,14.90
2008,07,01,02,49,14.90
2008,07,01,02,50,14.90
2008,07,01,02,51,14.90
2008,07,01,02,52,14.90
2008,07,01,02,53,14.90
2008,07,01,02,54,14.90
2008,07,01,02,55,14.90
2008,07,01,02,56,14.80
2008,07,01,02,57,14.80
2008,07,01,02,58,14.80
2008,07,01,02,59,14.70
2008,07,01,03,00,14.70
2008,07,01,03,01,14.60
2008,07,01,03,02,14.60
2008,07,01,03,03,14.60
2008,07,01,03,04,14.60
2008,07,01,03,05,14.60
2008,07,01,03,06,14.50
2008,07,01,03,07,14.50
2008,07,01,03,08,14.50
2008,07,01,03,09,14.40
2008,07,01,03,10,14.40
2008,07,01,03,11,14.40
2008,07,01,03,12,14.40
2008,07,01,03,13,14.40
2008,07,01,03,14,14.40
2008,07,01,03,15,14.40
2008,07,01,03,16,14.40
2008,07,01,03,17,14.40
2008,07,01,03,18,14.30
2008,07,01,03,19,14.30
2008,07,01,03,20,14.30
2008,07,01,03,21,14.30
2008,07,01,03,22,14.30
2008,07,01,03,23,14.30
2008,07,01,03,24,14.30
2008,07,01,03,25,14.20
2008,07,01,03,26,14.20
2008,07,01,03,27,14.20
2008,07,01,03,28,14.20
2008,07,01,03,29,14.20
2008,07,01,03,30,14.20
2008,07,01,03,31,14.20
2008,07,01,03,32,14.30
2008,07,01,03,33,14.30
2008,07,01,03,34,14.30
2008,07,01,03,35,14.30
2008,07,01,03,36,14.30
2008,07,01,03,37,14.30
2008,07,01,03,38,14.30
2008,07,01,03,39,14.30
2008,07,01,03,40,14.30
2008,07,01,03,41,14.30
2008,07,01,03,42,14.30
2008,07,01,03,43,14.30
2008,07,01,03,44,14.30
2008,07,01,03,45,14.30
2008,07,01,03,46,14.30
2008,07,01,03,47,14.30
2008,07,01,03,48,14.30
2008,07,01,03,49,14.30
2008,07,01,03,50,14.30
2008,07,01,03,51,14.30
2008,07,01,03,52,14.30
2008,07,01,03,53,14.30
2008,07,01,03,54,14.30
2008,07,01,03,55,14.30
2008,07,01,03,56,14.20
2008,07,01,03,57,14.20
2008,07,01,03,58,14.20
2008,07,01,03,59,14.20
2008,07,01,04,00,14.20
2008,07,01,04,01,14.20
2008,07,01,04,02,14.20
2008,07,01,04,03,14.20
2008,07,01,04,04,14.20
2008,07,01,04,05,14.20
2008,07,01,04,06,14.20
2008,07,01,04,07,14.20
2008,07,01,04,08,14.10
2008,07,01,04,09,14.10
2008,07,01,04,10,14.10
2008,07,01,04,11,14.10
2008,07,01,04,12,14.10
2008,07,01,04,13,14.10
2008,07,01,04,14,14.10
2008,07,01,04,15,14.10
2008,07,01,04,16,14.10
2008,07,01,04,17,14.10
2008,07,01,04,18,14.00
2008,07,01,04,19,14.00
2008,07,01,04,20,14.00
2008,07,01,04,21,13.90
2008,07,01,04,22,13.90
2008,07,01,04,23,13.90
2008,07,01,04,24,13.90
2008,07,01,04,25,13.90
2008,07,01,04,26,13.90
2008,07,01,04,27,13.80
2008,07,01,04,28,13.80
2008,07,01,04,29,13.80
2008,07,01,04,30,13.80
2008,07,01,04,31,13.80
2008,07,01,04,32,13.80
2008,07,01,04,33,13.80
2008,07,01,04,34,13.80
2008,07,01,04,35,13.80
2008,07,01,04,36,13.70
2008,07,01,04,37,13.70
2008,07,01,04,38,13.70
2008,07,01,04,39,13.70
2008,07,01,04,40,13.60
2008,07,01,04,41,13.60
2008,07,01,04,42,13.60
2008,07,01,04,43,13.50
2008,07,01,04,44,13.50
2008,07,01,04,45,13.40
2008,07,01,04,46,13.40
2008,07,01,04,47,13.30
2008,07,01,04,48,13.30
2008,07,01,04,49,13.20
2008,07,01,04,50,13.20
2008,07,01,04,51,13.20
2008,07,01,04,52,13.10
2008,07,01,04,53,13.10
2008,07,01,04,54,13.10
2008,07,01,04,55,13.00
2008,07,01,04,56,13.00
2008,07,01,04,57,12.90
2008,07,01,04,58,12.80
2008,07,01,04,59,12.80
2008,07,01,05,00,12.70
2008,07,01,05,01,12.70
2008,07,01,05,02,12.60
2008,07,01,05,03,12.60
2008,07,01,05,04,12.60
2008,07,01,05,05,12.60
2008,07,01,05,06,12.50
2008,07,01,05,07,12.50
2008,07,01,05,08,12.40
2008,07,01,05,09,12.40
2008,07,01,05,10,12.40
2008,07,01,05,11,12.40
2008,07,01,05,12,12.40
2008,07,01,05,13,12.50
2008,07,01,05,14,12.50
2008,07,01,05,15,12.50
2008,07,01,05,16,12.50
2008,07,01,05,17,12.50
2008,07,01,05,18,12.50
2008,07,01,05,19,12.50
2008,07,01,05,20,12.60
2008,07,01,05,21,12.50
2008,07,01,05,22,12.50
2008,07,01,05,23,12.60
2008,07,01,05,24,12.60
2008,07,01,05,25,12.60
2008,07,01,05,26,12.60
2008,07,01,05,27,12.60
2008,07,01,05,28,12.60
2008,07,01,05,29,12.60
2008,07,01,05,30,12.60
2008,07,01,05,31,12.60
2008,07,01,05,32,12.60
2008,07,01,05,33,12.60
2008,07,01,05,34,12.60
2008,07,01,05,35,12.60
2008,07,01,05,36,12.60
2008,07,01,05,37,12.60
2008,07,01,05,38,12.60
2008,07,01,05,39,12.60
2008,07,01,05,40,12.60
2008,07,01,05,41,12.70
2008,07,01,05,42,12.70
2008,07,01,05,43,12.70
2008,07,01,05,44,12.70
2008,07,01,05,45,12.70
2008,07,01,05,46,12.70
2008,07,01,05,47,12.70
2008,07,01,05,48,12.70
2008,07,01,05,49,12.70
2008,07,01,05,50,12.70
2008,07,01,05,51,12.70
2008,07,01,05,52,12.80
2008,07,01,05,53,12.80
2008,07,01,05,54,12.80
2008,07,01,05,55,12.80
2008,07,01,05,56,12.80
2008,07,01,05,57,12.80
2008,07,01,05,58,12.80
2008,07,01,05,59,12.80
2008,07,01,06,00,12.70
2008,07,01,06,01,12.70
2008,07,01,06,02,12.70
2008,07,01,06,03,12.70
2008,07,01,06,04,12.70
2008,07,01,06,05,12.80
2008,07,01,06,06,12.80
2008,07,01,06,07,12.80
2008,07,01,06,08,12.80
2008,07,01,06,09,12.80
2008,07,01,06,10,12.90
2008,07,01,06,11,12.90
2008,07,01,06,12,13.00
2008,07,01,06,13,13.00
2008,07,01,06,14,13.10
2008,07,01,06,15,13.10
2008,07,01,06,16,13.10
2008,07,01,06,17,13.20
2008,07,01,06,18,13.20
2008,07,01,06,19,13.30
2008,07,01,06,20,13.30
2008,07,01,06,21,13.30
2008,07,01,06,22,13.30
2008,07,01,06,23,13.40
2008,07,01,06,24,13.40
2008,07,01,06,25,13.40
2008,07,01,06,26,13.40
2008,07,01,06,27,13.40
2008,07,01,06,28,13.50
2008,07,01,06,29,13.50
2008,07,01,06,30,13.50
2008,07,01,06,31,13.60
2008,07,01,06,32,13.60
2008,07,01,06,33,13.60
2008,07,01,06,34,13.60
2008,07,01,06,35,13.60
2008,07,01,06,36,13.70
2008,07,01,06,37,13.70
2008,07,01,06,38,13.70
2008,07,01,06,39,13.70
2008,07,01,06,40,13.80
2008,07,01,06,41,13.80
2008,07,01,06,42,13.80
2008,07,01,06,43,13.80
2008,07,01,06,44,13.80
2008,07,01,06,45,13.80
2008,07,01,06,46,13.80
2008,07,01,06,47,13.80
2008,07,01,06,48,13.80
2008,07,01,06,49,13.80
2008,07,01,06,50,13.70
2008,07,01,06,51,13.70
2008,07,01,06,52,13.70
2008,07,01,06,53,13.70
2008,07,01,06,54,13.80
2008,07,01,06,55,13.80
2008,07,01,06,56,13.80
2008,07,01,06,57,13.80
2008,07,01,06,58,13.80
2008,07,01,06,59,13.80
2008,07,01,07,00,13.90
2008,07,01,07,01,13.90
2008,07,01,07,02,13.90
2008,07,01,07,03,13.90
2008,07,01,07,04,13.90
2008,07,01,07,05,14.00
2008,07,01,07,06,14.00
2008,07,01,07,07,14.00
2008,07,01,07,08,14.00
2008,07,01,07,09,14.10
2008,07,01,07,10,14.10
2008,07,01,07,11,14.10
2008,07,01,07,12,14.10
2008,07,01,07,13,14.20
2008,07,01,07,14,14.20
2008,07,01,07,15,14.30
2008,07,01,07,16,14.30
2008,07,01,07,17,14.40
2008,07,01,07,18,14.40
2008,07,01,07,19,14.50
2008,07,01,07,20,14.60
2008,07,01,07,21,14.70
2008,07,01,07,22,14.90
2008,07,01,07,23,15.00
2008,07,01,07,24,15.00
2008,07,01,07,25,15.10
2008,07,01,07,26,15.30
2008,07,01,07,27,15.40
2008,07,01,07,28,15.40
2008,07,01,07,29,15.50
2008,07,01,07,30,15.60
2008,07,01,07,31,15.60
2008,07,01,07,32,15.60
2008,07,01,07,33,15.60
2008,07,01,07,34,15.60
2008,07,01,07,35,15.50
2008,07,01,07,36,15.50
2008,07,01,07,37,15.40
2008,07,01,07,38,15.30
2008,07,01,07,39,15.20
2008,07,01,07,40,15.10
2008,07,01,07,41,15.00
2008,07,01,07,42,15.00
2008,07,01,07,43,15.00
2008,07,01,07,44,15.00
2008,07,01,07,45,15.00
2008,07,01,07,46,15.00
2008,07,01,07,47,14.90
2008,07,01,07,48,14.90
2008,07,01,07,49,14.80
2008,07,01,07,50,14.80
2008,07,01,07,51,14.80
2008,07,01,07,52,14.80
2008,07,01,07,53,14.80
2008,07,01,07,54,14.70
2008,07,01,07,55,14.70
2008,07,01,07,56,14.70
2008,07,01,07,57,14.80
2008,07,01,07,58,14.80
2008,07,01,07,59,14.80
2008,07,01,08,00,14.80
2008,07,01,08,01,14.80
2008,07,01,08,02,14.80
2008,07,01,08,03,14.80
2008,07,01,08,04,14.90
2008,07,01,08,05,15.00
2008,07,01,08,06,15.00
2008,07,01,08,07,15.10
2008,07,01,08,08,15.30
2008,07,01,08,09,15.40
2008,07,01,08,10,15.50
2008,07,01,08,11,15.60
2008,07,01,08,12,15.60
2008,07,01,08,13,15.60
2008,07,01,08,14,15.70
2008,07,01,08,15,15.70
2008,07,01,08,16,15.80
2008,07,01,08,17,15.80
2008,07,01,08,18,15.80
2008,07,01,08,19,15.80
2008,07,01,08,20,15.90
2008,07,01,08,21,16.00
2008,07,01,08,22,16.10
2008,07,01,08,23,16.10
2008,07,01,08,24,16.20
2008,07,01,08,25,16.20
2008,07,01,08,26,16.30
2008,07,01,08,27,16.30
2008,07,01,08,28,16.30
2008,07,01,08,29,16.30
2008,07,01,08,30,16.30
2008,07,01,08,31,16.30
2008,07,01,08,32,16.30
2008,07,01,08,33,16.30
2008,07,01,08,34,16.20
2008,07,01,08,35,16.20
2008,07,01,08,36,16.30
2008,07,01,08,37,16.30
2008,07,01,08,38,16.30
2008,07,01,08,39,16.30
2008,07,01,08,40,16.40
2008,07,01,08,41,16.60
2008,07,01,08,42,16.70
2008,07,01,08,43,16.80
2008,07,01,08,44,16.90
2008,07,01,08,45,17.00
2008,07,01,08,46,17.10
2008,07,01,08,47,17.10
2008,07,01,08,48,17.20
2008,07,01,08,49,17.30
2008,07,01,08,50,17.40
2008,07,01,08,51,17.50
2008,07,01,08,52,17.50
2008,07,01,08,53,17.50
2008,07,01,08,54,17.50
2008,07,01,08,55,17.50
2008,07,01,08,56,17.60
2008,07,01,08,57,17.50
2008,07,01,08,58,17.50
2008,07,01,08,59,17.50
2008,07,01,09,00,17.40
2008,07,01,09,01,17.40
2008,07,01,09,02,17.30
2008,07,01,09,03,17.30
2008,07,01,09,04,17.30
2008,07,01,09,05,17.30
2008,07,01,09,06,17.40
2008,07,01,09,07,17.40
2008,07,01,09,08,17.50
2008,07,01,09,09,17.50
2008,07,01,09,10,17.40
2008,07,01,09,11,17.40
2008,07,01,09,12,17.40
2008,07,01,09,13,17.30
2008,07,01,09,14,17.30
2008,07,01,09,15,17.30
2008,07,01,09,16,17.40
2008,07,01,09,17,17.40
2008,07,01,09,18,17.40
2008,07,01,09,19,17.40
2008,07,01,09,20,17.50
2008,07,01,09,21,17.60
2008,07,01,09,22,17.70
2008,07,01,09,23,17.70
2008,07,01,09,24,17.70
2008,07,01,09,25,17.70
2008,07,01,09,26,17.70
2008,07,01,09,27,17.70
2008,07,01,09,28,17.80
2008,07,01,09,29,17.90
2008,07,01,09,30,17.90
2008,07,01,09,31,17.80
2008,07,01,09,32,17.70
2008,07,01,09,33,17.60
2008,07,01,09,34,17.50
2008,07,01,09,35,17.40
2008,07,01,09,36,17.40
2008,07,01,09,37,17.40
2008,07,01,09,38,17.50
2008,07,01,09,39,17.50
2008,07,01,09,40,17.50
2008,07,01,09,41,17.50
2008,07,01,09,42,17.50
2008,07,01,09,43,17.50
2008,07,01,09,44,17.60
2008,07,01,09,45,17.60
2008,07,01,09,46,17.70
2008,07,01,09,47,17.70
2008,07,01,09,48,17.70
2008,07,01,09,49,17.70
2008,07,01,09,50,17.70
2008,07,01,09,51,17.90
2008,07,01,09,52,18.10
2008,07,01,09,53,18.20
2008,07,01,09,54,18.20
2008,07,01,09,55,18.30
2008,07,01,09,56,18.30
2008,07,01,09,57,18.30
2008,07,01,09,58,18.30
2008,07,01,09,59,18.30
2008,07,01,10,00,18.30
2008,07,01,10,01,18.20
2008,07,01,10,02,18.30
2008,07,01,10,03,18.50
2008,07,01,10,04,18.60
2008,07,01,10,05,18.60
2008,07,01,10,06,18.60
2008,07,01,10,07,18.70
2008,07,01,10,08,18.60
2008,07,01,10,09,18.50
2008,07,01,10,10,18.40
2008,07,01,10,11,18.40
2008,07,01,10,12,18.40
2008,07,01,10,13,18.40
2008,07,01,10,14,18.40
2008,07,01,10,15,18.40
2008,07,01,10,16,18.40
2008,07,01,10,17,18.40
2008,07,01,10,18,18.40
2008,07,01,10,19,18.30
2008,07,01,10,20,18.30
2008,07,01,10,21,18.20
2008,07,01,10,22,18.00
2008,07,01,10,23,17.90
2008,07,01,10,24,17.80
2008,07,01,10,25,17.80
2008,07,01,10,26,17.90
2008,07,01,10,27,18.00
2008,07,01,10,28,18.10
2008,07,01,10,29,18.30
2008,07,01,10,30,18.40
2008,07,01,10,31,18.40
2008,07,01,10,32,18.50
2008,07,01,10,33,18.60
2008,07,01,10,34,18.60
2008,07,01,10,35,18.60
2008,07,01,10,36,18.60
2008,07,01,10,37,18.80
2008,07,01,10,38,18.90
2008,07,01,10,39,18.90
2008,07,01,10,40,18.90
2008,07,01,10,41,18.90
2008,07,01,10,42,18.90
2008,07,01,10,43,18.90
2008,07,01,10,44,18.90
2008,07,01,10,45,19.00
2008,07,01,10,46,19.10
2008,07,01,10,47,19.10
2008,07,01,10,48,19.00
2008,07,01,10,49,18.90
2008,07,01,10,50,18.80
2008,07,01,10,51,18.90
2008,07,01,10,52,18.90
2008,07,01,10,53,19.00
2008,07,01,10,54,19.10
2008,07,01,10,55,19.20
2008,07,01,10,56,19.20
2008,07,01,10,57,19.20
2008,07,01,10,58,19.30
2008,07,01,10,59,19.50
2008,07,01,11,00,19.50
2008,07,01,11,01,19.60
2008,07,01,11,02,19.60
2008,07,01,11,03,19.70
2008,07,01,11,04,19.80
2008,07,01,11,05,19.80
2008,07,01,11,06,19.80
2008,07,01,11,07,19.70
2008,07,01,11,08,19.70
2008,07,01,11,09,19.60
2008,07,01,11,10,19.40
2008,07,01,11,11,19.30
2008,07,01,11,12,19.20
2008,07,01,11,13,19.00
2008,07,01,11,14,19.00
2008,07,01,11,15,18.90
2008,07,01,11,16,18.90
2008,07,01,11,17,18.70
2008,07,01,11,18,18.60
2008,07,01,11,19,18.60
2008,07,01,11,20,18.70
2008,07,01,11,21,18.80
2008,07,01,11,22,18.90
2008,07,01,11,23,18.90
2008,07,01,11,24,19.00
2008,07,01,11,25,19.20
2008,07,01,11,26,19.50
2008,07,01,11,27,19.70
2008,07,01,11,28,19.80
2008,07,01,11,29,19.90
2008,07,01,11,30,19.80
2008,07,01,11,31,19.80
2008,07,01,11,32,19.80
2008,07,01,11,33,19.80
2008,07,01,11,34,19.80
2008,07,01,11,35,19.70
2008,07,01,11,36,19.70
2008,07,01,11,37,19.70
2008,07,01,11,38,19.70
2008,07,01,11,39,19.70
2008,07,01,11,40,19.60
2008,07,01,11,41,19.50
2008,07,01,11,42,19.50
2008,07,01,11,43,19.40
2008,07,01,11,44,19.40
2008,07,01,11,45,19.40
2008,07,01,11,46,19.40
2008,07,01,11,47,19.50
2008,07,01,11,48,19.50
2008,07,01,11,49,19.40
2008,07,01,11,50,19.30
2008,07,01,11,51,19.30
2008,07,01,11,52,19.30
2008,07,01,11,53,19.20
2008,07,01,11,54,19.20
2008,07,01,11,55,19.20
2008,07,01,11,56,19.50
2008,07,01,11,57,19.70
2008,07,01,11,58,19.90
2008,07,01,11,59,20.00
2008,07,01,12,00,20.10
2008,07,01,12,01,20.00
2008,07,01,12,02,20.10
2008,07,01,12,03,20.00
2008,07,01,12,04,20.00
2008,07,01,12,05,19.90
2008,07,01,12,06,19.80
2008,07,01,12,07,19.80
2008,07,01,12,08,19.90
2008,07,01,12,09,20.00
2008,07,01,12,10,20.20
2008,07,01,12,11,20.40
2008,07,01,12,12,20.50
2008,07,01,12,13,20.60
2008,07,01,12,14,20.70
2008,07,01,12,15,20.70
2008,07,01,12,16,20.60
2008,07,01,12,17,20.40
2008,07,01,12,18,20.20
2008,07,01,12,19,20.10
2008,07,01,12,20,20.00
2008,07,01,12,21,19.90
2008,07,01,12,22,19.90
2008,07,01,12,23,20.00
2008,07,01,12,24,20.10
2008,07,01,12,25,20.00
2008,07,01,12,26,19.90
2008,07,01,12,27,19.80
2008,07,01,12,28,19.70
2008,07,01,12,29,19.60
2008,07,01,12,30,19.60
2008,07,01,12,31,19.60
2008,07,01,12,32,19.70
2008,07,01,12,33,19.70
2008,07,01,12,34,19.70
2008,07,01,12,35,19.50
2008,07,01,12,36,19.30
2008,07,01,12,37,19.10
2008,07,01,12,38,19.10
2008,07,01,12,39,19.20
2008,07,01,12,40,19.40
2008,07,01,12,41,19.60
2008,07,01,12,42,19.80
2008,07,01,12,43,20.00
2008,07,01,12,44,20.10
2008,07,01,12,45,20.30
2008,07,01,12,46,20.30
2008,07,01,12,47,20.30
2008,07,01,12,48,20.10
2008,07,01,12,49,19.90
2008,07,01,12,50,19.80
2008,07,01,12,51,19.70
2008,07,01,12,52,19.60
2008,07,01,12,53,19.70
2008,07,01,12,54,19.80
2008,07,01,12,55,19.90
2008,07,01,12,56,20.10
2008,07,01,12,57,20.20
2008,07,01,12,58,20.30
2008,07,01,12,59,20.30
2008,07,01,13,00,20.30
2008,07,01,13,01,20.50
2008,07,01,13,02,20.60
2008,07,01,13,03,20.60
2008,07,01,13,04,20.60
2008,07,01,13,05,20.50
2008,07,01,13,06,20.40
2008,07,01,13,07,20.40
2008,07,01,13,08,20.30
2008,07,01,13,09,20.10
2008,07,01,13,10,19.90
2008,07,01,13,11,19.80
2008,07,01,13,12,19.70
2008,07,01,13,13,19.70
2008,07,01,13,14,19.60
2008,07,01,13,15,19.60
2008,07,01,13,16,19.60
2008,07,01,13,17,19.60
2008,07,01,13,18,19.50
2008,07,01,13,19,19.50
2008,07,01,13,20,19.40
2008,07,01,13,21,19.40
2008,07,01,13,22,19.40
2008,07,01,13,23,19.40
2008,07,01,13,24,19.40
2008,07,01,13,25,19.40
2008,07,01,13,26,19.30
2008,07,01,13,27,19.30
2008,07,01,13,28,19.20
2008,07,01,13,29,19.20
2008,07,01,13,30,19.20
2008,07,01,13,31,19.30
2008,07,01,13,32,19.30
2008,07,01,13,33,19.40
2008,07,01,13,34,19.50
2008,07,01,13,35,19.60
2008,07,01,13,36,19.60
2008,07,01,13,37,19.60
2008,07,01,13,38,19.60
2008,07,01,13,39,19.60
2008,07,01,13,40,19.60
2008,07,01,13,41,19.60
2008,07,01,13,42,19.70
2008,07,01,13,43,19.80
2008,07,01,13,44,20.00
2008,07,01,13,45,20.30
2008,07,01,13,46,20.50
2008,07,01,13,47,20.60
2008,07,01,13,48,20.50
2008,07,01,13,49,20.50
2008,07,01,13,50,20.30
2008,07,01,13,51,20.30
2008,07,01,13,52,20.20
2008,07,01,13,53,20.00
2008,07,01,13,54,19.90
2008,07,01,13,55,19.80
2008,07,01,13,56,19.80
2008,07,01,13,57,19.80
2008,07,01,13,58,19.70
2008,07,01,13,59,19.70
2008,07,01,14,00,19.70
2008,07,01,14,01,19.60
2008,07,01,14,02,19.60
2008,07,01,14,03,19.60
2008,07,01,14,04,19.70
2008,07,01,14,05,19.90
2008,07,01,14,06,20.00
2008,07,01,14,07,20.10
2008,07,01,14,08,20.10
2008,07,01,14,09,20.00
2008,07,01,14,10,19.90
2008,07,01,14,11,19.90
2008,07,01,14,12,19.80
2008,07,01,14,13,19.80
2008,07,01,14,14,19.80
2008,07,01,14,15,19.90
2008,07,01,14,16,19.90
2008,07,01,14,17,20.00
2008,07,01,14,18,19.90
2008,07,01,14,19,20.00
2008,07,01,14,20,20.00
2008,07,01,14,21,20.00
2008,07,01,14,22,20.10
2008,07,01,14,23,20.10
2008,07,01,14,24,20.20
2008,07,01,14,25,20.20
2008,07,01,14,26,20.30
2008,07,01,14,27,20.60
2008,07,01,14,28,20.80
2008,07,01,14,29,21.00
2008,07,01,14,30,21.10
2008,07,01,14,31,21.20
2008,07,01,14,32,21.00
2008,07,01,14,33,20.90
2008,07,01,14,34,20.70
2008,07,01,14,35,20.60
2008,07,01,14,36,20.70
2008,07,01,14,37,20.70
2008,07,01,14,38,20.70
2008,07,01,14,39,20.60
2008,07,01,14,40,20.60
2008,07,01,14,41,20.60
2008,07,01,14,42,20.50
2008,07,01,14,43,20.40
2008,07,01,14,44,20.30
2008,07,01,14,45,20.40
2008,07,01,14,46,20.40
2008,07,01,14,47,20.50
2008,07,01,14,48,20.60
2008,07,01,14,49,20.80
2008,07,01,14,50,20.80
2008,07,01,14,51,20.70
2008,07,01,14,52,20.60
2008,07,01,14,53,20.60
2008,07,01,14,54,20.70
2008,07,01,14,55,20.70
2008,07,01,14,56,20.80
2008,07,01,14,57,20.80
2008,07,01,14,58,20.80
2008,07,01,14,59,20.70
2008,07,01,15,00,20.60
2008,07,01,15,01,20.50
2008,07,01,15,02,20.50
2008,07,01,15,03,20.60
2008,07,01,15,04,20.50
2008,07,01,15,05,20.40
2008,07,01,15,06,20.40
2008,07,01,15,07,20.50
2008,07,01,15,08,20.50
2008,07,01,15,09,20.50
2008,07,01,15,10,20.60
2008,07,01,15,11,20.60
2008,07,01,15,12,20.50
2008,07,01,15,13,20.50
2008,07,01,15,14,20.50
2008,07,01,15,15,20.50
2008,07,01,15,16,20.50
2008,07,01,15,17,20.30
2008,07,01,15,18,20.20
2008,07,01,15,19,20.20
2008,07,01,15,20,20.20
2008,07,01,15,21,20.30
2008,07,01,15,22,20.20
2008,07,01,15,23,20.20
2008,07,01,15,24,20.20
2008,07,01,15,25,20.20
2008,07,01,15,26,20.20
2008,07,01,15,27,20.20
2008,07,01,15,28,20.10
2008,07,01,15,29,20.00
2008,07,01,15,30,20.00
2008,07,01,15,31,20.00
2008,07,01,15,32,20.00
2008,07,01,15,33,20.10
2008,07,01,15,34,20.20
2008,07,01,15,35,20.30
2008,07,01,15,36,20.30
2008,07,01,15,37,20.40
2008,07,01,15,38,20.40
2008,07,01,15,39,20.40
2008,07,01,15,40,20.30
2008,07,01,15,41,20.20
2008,07,01,15,42,20.10
2008,07,01,15,43,20.00
2008,07,01,15,44,20.00
2008,07,01,15,45,19.90
2008,07,01,15,46,20.00
2008,07,01,15,47,20.00
2008,07,01,15,48,20.00
2008,07,01,15,49,20.00
2008,07,01,15,50,20.10
2008,07,01,15,51,20.20
2008,07,01,15,52,20.20
2008,07,01,15,53,20.30
2008,07,01,15,54,20.40
2008,07,01,15,55,20.50
2008,07,01,15,56,20.50
2008,07,01,15,57,20.50
2008,07,01,15,58,20.30
2008,07,01,15,59,20.30
2008,07,01,16,00,20.20
2008,07,01,16,01,20.20
2008,07,01,16,02,20.00
2008,07,01,16,03,19.90
2008,07,01,16,04,19.70
2008,07,01,16,05,19.50
2008,07,01,16,06,19.40
2008,07,01,16,07,19.40
2008,07,01,16,08,19.50
2008,07,01,16,09,19.50
2008,07,01,16,10,19.60
2008,07,01,16,11,19.70
2008,07,01,16,12,19.70
2008,07,01,16,13,19.80
2008,07,01,16,14,19.80
2008,07,01,16,15,19.70
2008,07,01,16,16,19.60
2008,07,01,16,17,19.60
2008,07,01,16,18,19.60
2008,07,01,16,19,19.70
2008,07,01,16,20,19.70
2008,07,01,16,21,19.70
2008,07,01,16,22,19.80
2008,07,01,16,23,19.90
2008,07,01,16,24,20.00
2008,07,01,16,25,20.00
2008,07,01,16,26,19.80
2008,07,01,16,27,19.70
2008,07,01,16,28,19.50
2008,07,01,16,29,19.50
2008,07,01,16,30,19.40
2008,07,01,16,31,19.30
2008,07,01,16,32,19.10
2008,07,01,16,33,18.90
2008,07,01,16,34,18.80
2008,07,01,16,35,18.70
2008,07,01,16,36,18.60
2008,07,01,16,37,18.60
2008,07,01,16,38,18.50
2008,07,01,16,39,18.50
2008,07,01,16,40,18.50
2008,07,01,16,41,18.60
2008,07,01,16,42,18.60
2008,07,01,16,43,18.60
2008,07,01,16,44,18.50
2008,07,01,16,45,18.50
2008,07,01,16,46,18.50
2008,07,01,16,47,18.50
2008,07,01,16,48,18.50
2008,07,01,16,49,18.40
2008,07,01,16,50,18.40
2008,07,01,16,51,18.50
2008,07,01,16,52,18.60
2008,07,01,16,53,18.70
2008,07,01,16,54,18.60
2008,07,01,16,55,18.70
2008,07,01,16,56,18.70
2008,07,01,16,57,18.80
2008,07,01,16,58,18.80
2008,07,01,16,59,18.80
2008,07,01,17,00,18.70
2008,07,01,17,01,18.60
2008,07,01,17,02,18.50
2008,07,01,17,03,18.40
2008,07,01,17,04,18.30
2008,07,01,17,05,18.20
2008,07,01,17,06,18.20
2008,07,01,17,07,18.10
2008,07,01,17,08,18.10
2008,07,01,17,09,18.00
2008,07,01,17,10,18.00
2008,07,01,17,11,18.00
2008,07,01,17,12,17.90
2008,07,01,17,13,17.90
2008,07,01,17,14,17.90
2008,07,01,17,15,17.90
2008,07,01,17,16,17.90
2008,07,01,17,17,18.00
2008,07,01,17,18,18.00
2008,07,01,17,19,18.00